STARLINK-32274, 60922

Orbit data source: Space-Track

STARLINK-32274, 60922 is a payload satellite owned by SpaceX/Seattle (US) in LEO that was launched on Sat, 31 Aug 2024 UTC via an FALCON 9 launch vehicle from the Air Force Eastern Test Range (AFETR). Payload-class satellites include a variety of spacecraft equipped with specific instruments for various scientific and technological missions. These include communications satellites like Starlink; space stations such as the ISS; scientific satellites like the Hubble; Earth observation satellites from companies like Planet Labs, Umbra, and HawkEye 360; GPS; miniature CubeSats for education and research; and military/defense satellites.

Loading next visibility...
Identifier
60922, 2024-154V
Orbit
LEO
Country
Flag of USUS
Related business
Manufacturer
SpaceX/Seattle
Mission
Operational Commercial Communications
Bus & Motor
STARLINK V2M, Unknown motor
Mass
730 kg wet, ~700 kg dry
Launch date (UTC)
2024-08-31 (2 years ago)
Launch vehicle
FALCON 9
Launch site
Air Force Eastern Test Range (AFETR)
Object type
Payload
Rocket body
Debris
Shape & HBR
Box + 2 Pan, 17.7 m
Radar Cross Section
33.884 m², Large (>1 m²)

Expand to show TLE details & history
Last TLE update: 1 day ago

TLE from 1 day ago
0 STARLINK-32274
1 60922U 24154V   26175.21715567  .00000530  00000-0  30041-4 0  9990
2 60922  53.1605 149.1150 0001394  91.4185 268.6976 15.30196817102656
Epoch: 2026-06-24T05:12Z
TLE epoch observation values (Epoch: 2026-06-24T05:12:42.249Z)
Latitude
Longitude
158.56142°
Altitude
476.146 km
Speed
7.629 km/s
True Right ascension
09h 56m 27s
True Declination
0° 00' 00"
Sunlit
Object was in daylight at epoch
Visualization orbit readout
Latitude
Unknown
Longitude
Unknown
Altitude
Unknown
Speed
Unknown
Apparent Right ascension
Unknown
Apparent Declination
Unknown
Sunlit
N/A
Visualization observer readout
Local Sidereal Time
16:57:20
Azimuth
Unknown
Elevation
Unknown
Doppler factor
Unknown
Orbital elements
Apogee altitude
476.436 km
Perigee altitude
474.526 km
Semi-major axis
6,853.618 km
Eccentricity
0.00014
Inclination
53.1605°
RAAN
149.115°
Arg. of periapsis
91.4185°
True anomaly
268.68163°
Mean anomaly
268.6976°
Eccentric anomaly
268.68962°
Mean motion
3.82528 °/min
Orbital period
94.11 mins
BSTAR
0.000030041
Loading maneuver chart data...
Computing Atmospheric mass density...
Loading historical data...
Loading historical data...
Loading historical data...
Loading historical data...
Loading historical data...
Loading historical data...
Loading historical data...

Documentation

Showing up to 5 results
|